When you browse on this site, cookies collect data to enhance your experience and personalize the content and advertising you see.
Visit our Privacy Policy to learn more. By continuing to use the site, you agree to this use of cookies and data.
  • In Slovakia
  • List of Countries
  • For 7 days
  • Water Temperature
  • Weather Map
  • Weather Widgets
  • user-avatar
    Login

    Hourly Weather Gorbunovschina

    Today, 7 June, Sunday

    Time Temperature Precipitation Wind Pressure Humidity
    00:00 +15°C° 0 mm 1 mps 741 mmHg 88%
    01:00 +15°C° 0 mm 2 mps 741 mmHg 90%
    02:00 +14°C° 0 mm 2 mps 741 mmHg 91%
    03:00 +14°C° 0 mm 2 mps 741 mmHg 91%
    04:00 +14°C° 0 mm 2 mps 741 mmHg 92%
    05:00 +14°C° 0 mm 3 mps 741 mmHg 92%
    06:00 +16°C° 0 mm 3 mps 741 mmHg 89%
    07:00 +18°C° 0 mm 3 mps 742 mmHg 86%
    08:00 +19°C° 0 mm 4 mps 742 mmHg 83%
    09:00 +20°C° 0 mm 4 mps 742 mmHg 81%
    10:00 +21°C° 0 mm 4 mps 742 mmHg 80%
    11:00 +22°C° 0 mm 5 mps 742 mmHg 78%
    12:00 +23°C° 0.4 mm 5 mps 742 mmHg 77%
    13:00 +25°C° 0.4 mm 5 mps 741 mmHg 76%
    14:00 +26°C° 0.4 mm 6 mps 741 mmHg 75%
    15:00 +26°C° 0.4 mm 5 mps 741 mmHg 76%
    16:00 +26°C° 0.4 mm 5 mps 740 mmHg 76%
    17:00 +27°C° 0.4 mm 5 mps 740 mmHg 77%
    18:00 +25°C° 0.3 mm 4 mps 740 mmHg 80%
    19:00 +23°C° 0.3 mm 4 mps 740 mmHg 83%
    20:00 +22°C° 0.3 mm 3 mps 740 mmHg 86%
    21:00 +21°C° 0 mm 4 mps 740 mmHg 88%
    22:00 +20°C° 0 mm 4 mps 740 mmHg 89%
    23:00 +19°C° 0 mm 4 mps 740 mmHg 90%

    Tomorrow, 8 June, Monday

    Time Temperature Precipitation Wind Pressure Humidity
    00:00 +18°C° 0 mm 4 mps 740 mmHg 92%
    01:00 +18°C° 0 mm 4 mps 740 mmHg 93%
    02:00 +17°C° 0 mm 3 mps 740 mmHg 95%
    03:00 +17°C° 0 mm 4 mps 740 mmHg 95%
    04:00 +17°C° 0 mm 4 mps 740 mmHg 95%
    05:00 +17°C° 0 mm 4 mps 740 mmHg 96%
    06:00 +18°C° 0 mm 4 mps 740 mmHg 91%
    07:00 +20°C° 0 mm 4 mps 740 mmHg 86%
    08:00 +21°C° 0 mm 5 mps 740 mmHg 82%
    09:00 +23°C° 0 mm 5 mps 741 mmHg 77%
    10:00 +25°C° 0 mm 5 mps 741 mmHg 72%
    11:00 +27°C° 0 mm 6 mps 741 mmHg 67%
    12:00 +27°C° 0 mm 5 mps 741 mmHg 65%
    13:00 +28°C° 0 mm 5 mps 741 mmHg 62%
    14:00 +28°C° 0 mm 5 mps 741 mmHg 60%
    15:00 +28°C° 0.1 mm 4 mps 741 mmHg 64%
    16:00 +28°C° 0.1 mm 4 mps 740 mmHg 68%
    17:00 +28°C° 0.1 mm 3 mps 740 mmHg 71%
    18:00 +26°C° 0.1 mm 3 mps 740 mmHg 75%
    19:00 +24°C° 0.1 mm 3 mps 740 mmHg 80%
    20:00 +22°C° 0.1 mm 3 mps 740 mmHg 84%
    21:00 +21°C° 0.3 mm 3 mps 740 mmHg 86%
    22:00 +19°C° 0.3 mm 3 mps 740 mmHg 89%
    23:00 +18°C° 0.3 mm 3 mps 741 mmHg 91%

    Day after tomorrow, 9 June, Tuesday

    Time Temperature Precipitation Wind Pressure Humidity
    00:00 +18°C° 0.4 mm 3 mps 741 mmHg 92%
    01:00 +18°C° 0.4 mm 3 mps 741 mmHg 93%
    02:00 +17°C° 0.4 mm 3 mps 741 mmHg 95%
    03:00 +18°C° 0 mm 3 mps 741 mmHg 95%
    04:00 +18°C° 0 mm 3 mps 740 mmHg 95%
    05:00 +18°C° 0 mm 3 mps 740 mmHg 95%
    06:00 +19°C° 0 mm 3 mps 741 mmHg 93%
    07:00 +20°C° 0 mm 3 mps 741 mmHg 90%
    08:00 +22°C° 0 mm 3 mps 741 mmHg 87%
    09:00 +23°C° 0.7 mm 4 mps 741 mmHg 83%
    10:00 +25°C° 0.7 mm 4 mps 741 mmHg 78%
    11:00 +26°C° 0.7 mm 4 mps 741 mmHg 73%
    12:00 +26°C° 0.7 mm 4 mps 741 mmHg 74%
    13:00 +26°C° 0.7 mm 4 mps 741 mmHg 74%
    14:00 +27°C° 0.7 mm 3 mps 741 mmHg 75%
    15:00 +27°C° 0.3 mm 3 mps 741 mmHg 76%
    16:00 +27°C° 0.3 mm 2 mps 741 mmHg 76%
    17:00 +27°C° 0.3 mm 2 mps 741 mmHg 76%
    18:00 +26°C° 0.3 mm 2 mps 741 mmHg 79%
    19:00 +24°C° 0.3 mm 2 mps 741 mmHg 81%
    20:00 +23°C° 0.3 mm 2 mps 741 mmHg 83%
    21:00 +21°C° 0 mm 2 mps 741 mmHg 85%
    22:00 +20°C° 0 mm 2 mps 741 mmHg 88%
    23:00 +19°C° 0 mm 2 mps 741 mmHg 90%

    10 June, Wednesday

    Time Temperature Precipitation Wind Pressure Humidity
    00:00 +19°C° 0.1 mm 2 mps 741 mmHg 91%
    01:00 +19°C° 0.1 mm 2 mps 741 mmHg 92%
    02:00 +19°C° 0.1 mm 2 mps 741 mmHg 93%
    03:00 +19°C° 0.1 mm 2 mps 741 mmHg 93%
    04:00 +19°C° 0.1 mm 2 mps 741 mmHg 94%
    05:00 +19°C° 0.1 mm 3 mps 741 mmHg 95%
    06:00 +20°C° 0 mm 3 mps 741 mmHg 93%
    07:00 +21°C° 0 mm 3 mps 741 mmHg 91%
    08:00 +22°C° 0 mm 3 mps 741 mmHg 88%
    09:00 +23°C° 1.1 mm 4 mps 741 mmHg 85%
    10:00 +25°C° 1.1 mm 4 mps 741 mmHg 81%
    11:00 +26°C° 1.1 mm 5 mps 741 mmHg 78%
    12:00 +27°C° 0.8 mm 5 mps 741 mmHg 76%
    13:00 +27°C° 0.8 mm 4 mps 740 mmHg 73%
    14:00 +28°C° 0.8 mm 4 mps 740 mmHg 71%
    15:00 +27°C° 1.3 mm 4 mps 740 mmHg 74%
    16:00 +27°C° 1.3 mm 3 mps 740 mmHg 78%
    17:00 +27°C° 1.3 mm 2 mps 740 mmHg 81%
    18:00 +26°C° 0.5 mm 2 mps 740 mmHg 82%
    19:00 +25°C° 0.5 mm 2 mps 740 mmHg 83%
    20:00 +23°C° 0.5 mm 2 mps 740 mmHg 84%
    21:00 +22°C° 0 mm 3 mps 740 mmHg 86%
    22:00 +21°C° 0 mm 3 mps 740 mmHg 88%
    23:00 +20°C° 0 mm 3 mps 740 mmHg 90%

    11 June, Thursday

    Time Temperature Precipitation Wind Pressure Humidity
    00:00 +19°C° 0 mm 3 mps 740 mmHg 91%
    01:00 +19°C° 0 mm 3 mps 740 mmHg 92%
    02:00 +19°C° 0 mm 3 mps 740 mmHg 94%
    03:00 +19°C° 0 mm 3 mps 740 mmHg 94%
    04:00 +19°C° 0 mm 3 mps 740 mmHg 95%
    05:00 +19°C° 0 mm 3 mps 740 mmHg 96%
    06:00 +20°C° 0 mm 3 mps 740 mmHg 93%
    07:00 +22°C° 0 mm 3 mps 740 mmHg 91%
    08:00 +23°C° 0 mm 4 mps 740 mmHg 89%
    09:00 +25°C° 0.2 mm 4 mps 740 mmHg 83%
    10:00 +27°C° 0.2 mm 4 mps 740 mmHg 78%
    11:00 +28°C° 0.2 mm 5 mps 740 mmHg 73%
    12:00 +28°C° 1.1 mm 5 mps 740 mmHg 73%
    13:00 +28°C° 1.1 mm 4 mps 739 mmHg 73%
    14:00 +28°C° 1.1 mm 4 mps 739 mmHg 72%
    15:00 +28°C° 0.4 mm 4 mps 739 mmHg 74%
    16:00 +28°C° 0.4 mm 3 mps 739 mmHg 76%
    17:00 +28°C° 0.4 mm 3 mps 739 mmHg 78%
    18:00 +26°C° 0.4 mm 3 mps 739 mmHg 80%
    19:00 +25°C° 0.4 mm 3 mps 739 mmHg 83%
    20:00 +24°C° 0.4 mm 3 mps 739 mmHg 85%
    21:00 +22°C° 0.1 mm 3 mps 739 mmHg 87%
    22:00 +21°C° 0.1 mm 3 mps 739 mmHg 89%
    23:00 +20°C° 0.1 mm 3 mps 739 mmHg 92%

    12 June, Friday

    Time Temperature Precipitation Wind Pressure Humidity
    00:00 +20°C° 0 mm 3 mps 739 mmHg 92%
    01:00 +20°C° 0 mm 3 mps 739 mmHg 93%
    02:00 +19°C° 0 mm 3 mps 739 mmHg 94%
    03:00 +19°C° 0 mm 3 mps 739 mmHg 94%
    04:00 +19°C° 0 mm 3 mps 739 mmHg 94%
    05:00 +19°C° 0 mm 2 mps 739 mmHg 94%
    06:00 +20°C° 0 mm 3 mps 739 mmHg 91%
    07:00 +22°C° 0 mm 3 mps 739 mmHg 88%
    08:00 +24°C° 0 mm 3 mps 739 mmHg 86%
    09:00 +25°C° 0.4 mm 3 mps 739 mmHg 81%
    10:00 +27°C° 0.4 mm 3 mps 739 mmHg 77%
    11:00 +28°C° 0.4 mm 3 mps 739 mmHg 72%
    12:00 +28°C° 0.2 mm 3 mps 739 mmHg 71%
    13:00 +29°C° 0.2 mm 3 mps 739 mmHg 69%
    14:00 +29°C° 0.2 mm 4 mps 739 mmHg 67%
    15:00 +29°C° 0.3 mm 3 mps 739 mmHg 69%
    16:00 +29°C° 0.3 mm 3 mps 738 mmHg 71%
    17:00 +29°C° 0.3 mm 2 mps 738 mmHg 74%
    18:00 +27°C° 0.2 mm 2 mps 738 mmHg 77%
    19:00 +26°C° 0.2 mm 2 mps 738 mmHg 80%
    20:00 +24°C° 0.2 mm 2 mps 738 mmHg 84%
    21:00 +23°C° 0 mm 2 mps 738 mmHg 87%
    22:00 +22°C° 0 mm 3 mps 738 mmHg 90%
    23:00 +21°C° 0 mm 3 mps 739 mmHg 93%
    Show more